DEPOT41 KSRQ-KSRQ

Flight info

Callsign DEPOT41
Flight time 0h 43m
Altitude 2500
Route CIRA
Aircraft F35/M-SDFGIRW/S

Departure

Time 2026-05-05 09:47
Airport Sarasota Bradenton International Airport (KSRQ)

Arrival

Time 2026-05-05 10:30
Airport Sarasota Bradenton International Airport (KSRQ)
Time Latitude Longitude Altitude Speed Heading
2026-05-05 09:38 27.39695 -82.54771 29 ft 0 kts 314°
2026-05-05 09:43 27.39696 -82.54771 29 ft 2 kts 314°
2026-05-05 09:43 27.39703 -82.54834 29 ft 15 kts 269°
2026-05-05 09:43 27.39717 -82.54974 29 ft 18 kts 242°
2026-05-05 09:44 27.39627 -82.55059 29 ft 16 kts 219°
2026-05-05 09:44 27.39540 -82.55135 28 ft 15 kts 218°
2026-05-05 09:44 27.39457 -82.55205 28 ft 14 kts 202°
2026-05-05 09:44 27.39388 -82.55157 28 ft 12 kts 134°
2026-05-05 09:45 27.39324 -82.55082 28 ft 17 kts 134°
2026-05-05 09:45 27.39224 -82.54959 28 ft 23 kts 129°
2026-05-05 09:45 27.39136 -82.54810 28 ft 22 kts 136°
2026-05-05 09:45 27.39030 -82.54688 29 ft 21 kts 135°
2026-05-05 09:46 27.38929 -82.54572 29 ft 20 kts 134°
2026-05-05 09:46 27.38826 -82.54476 29 ft 18 kts 152°
2026-05-05 09:46 27.38719 -82.54419 28 ft 15 kts 174°
2026-05-05 09:46 27.38659 -82.54486 28 ft 10 kts 272°
2026-05-05 09:47 27.38967 -82.54848 29 ft 168 kts 315°
2026-05-05 09:47 27.40141 -82.56180 854 ft 317 kts 316°
2026-05-05 09:47 27.42096 -82.58320 1735 ft 460 kts 317°
2026-05-05 09:47 27.44689 -82.59411 1846 ft 353 kts 20°
2026-05-05 09:48 27.45909 -82.57693 1679 ft 258 kts 100°
2026-05-05 09:48 27.45006 -82.56341 1426 ft 197 kts 132°
2026-05-05 09:48 27.44072 -82.55332 1322 ft 184 kts 137°
2026-05-05 09:48 27.43035 -82.54324 1356 ft 217 kts 137°
2026-05-05 09:49 27.41772 -82.53098 1523 ft 260 kts 137°
2026-05-05 09:49 27.40297 -82.51657 1808 ft 301 kts 137°
2026-05-05 09:49 27.38777 -82.50170 2121 ft 270 kts 137°
2026-05-05 09:49 27.37300 -82.49335 1951 ft 224 kts 190°
2026-05-05 09:50 27.36467 -82.50480 1337 ft 186 kts 262°
2026-05-05 09:50 27.36603 -82.51827 759 ft 166 kts 290°
2026-05-05 09:50 27.37301 -82.52934 463 ft 219 kts 316°
2026-05-05 09:50 27.38662 -82.54461 1098 ft 303 kts 316°
2026-05-05 09:51 27.40208 -82.56231 1568 ft 333 kts 314°
2026-05-05 09:51 27.41779 -82.58098 1551 ft 310 kts 319°
2026-05-05 09:51 27.43461 -82.58423 1505 ft 222 kts 33°
2026-05-05 09:51 27.44005 -82.57209 1404 ft 176 kts 109°
2026-05-05 09:52 27.43167 -82.56057 1561 ft 224 kts 133°
2026-05-05 09:52 27.41926 -82.54652 1702 ft 275 kts 134°
2026-05-05 09:52 27.40486 -82.53048 1905 ft 297 kts 134°
2026-05-05 09:52 27.39083 -82.51494 2001 ft 270 kts 134°
2026-05-05 09:53 27.37760 -82.50109 1942 ft 246 kts 150°
2026-05-05 09:53 27.36323 -82.50368 1419 ft 213 kts 232°
2026-05-05 09:53 27.36377 -82.52003 907 ft 228 kts 312°
2026-05-05 09:53 27.37419 -82.53148 538 ft 188 kts 317°
2026-05-05 09:54 27.38290 -82.54087 216 ft 166 kts 319°
2026-05-05 09:54 27.39043 -82.54941 45 ft 155 kts 317°
2026-05-05 09:54 27.40086 -82.56046 1023 ft 262 kts 316°
2026-05-05 09:54 27.41510 -82.57899 1447 ft 360 kts 310°
2026-05-05 09:55 27.43212 -82.59713 1569 ft 308 kts 347°
2026-05-05 09:55 27.44826 -82.59064 1544 ft 230 kts 66°
2026-05-05 09:55 27.44528 -82.57533 1506 ft 214 kts 129°
2026-05-05 09:55 27.43490 -82.56277 1594 ft 218 kts 131°
2026-05-05 09:56 27.42471 -82.55028 1623 ft 216 kts 131°
2026-05-05 09:56 27.41436 -82.53766 1674 ft 227 kts 131°
2026-05-05 09:56 27.40346 -82.52428 1780 ft 238 kts 131°
2026-05-05 09:56 27.39242 -82.51067 1894 ft 230 kts 131°
2026-05-05 09:57 27.37886 -82.50313 1894 ft 237 kts 185°
2026-05-05 09:57 27.36625 -82.51449 1662 ft 242 kts 256°
2026-05-05 09:57 27.37266 -82.53020 862 ft 228 kts 319°
2026-05-05 09:57 27.38412 -82.54223 205 ft 220 kts 315°
2026-05-05 09:58 27.39588 -82.55561 416 ft 300 kts 315°
2026-05-05 09:58 27.41005 -82.57257 1016 ft 283 kts 314°
2026-05-05 09:58 27.42370 -82.58793 1307 ft 272 kts 332°
2026-05-05 09:58 27.43985 -82.58696 1282 ft 227 kts 45°
2026-05-05 09:59 27.44464 -82.57151 1258 ft 228 kts 104°
2026-05-05 09:59 27.43484 -82.55557 1273 ft 267 kts 130°
2026-05-05 09:59 27.42198 -82.54053 1261 ft 267 kts 133°
2026-05-05 09:59 27.40891 -82.52562 1260 ft 279 kts 133°
2026-05-05 10:00 27.39503 -82.50998 1289 ft 281 kts 140°
2026-05-05 10:00 27.37800 -82.50911 1218 ft 247 kts 218°
2026-05-05 10:00 27.37436 -82.52583 996 ft 227 kts 285°
2026-05-05 10:00 27.38268 -82.54031 383 ft 221 kts 314°
2026-05-05 10:01 27.39306 -82.55236 69 ft 235 kts 315°
2026-05-05 10:01 27.40479 -82.56611 678 ft 244 kts 316°
2026-05-05 10:01 27.41689 -82.57999 1240 ft 259 kts 316°
2026-05-05 10:01 27.43147 -82.59261 1426 ft 265 kts 350°
2026-05-05 10:02 27.44838 -82.58704 1432 ft 267 kts 49°
2026-05-05 10:02 27.45211 -82.56872 1342 ft 243 kts 116°
2026-05-05 10:02 27.44044 -82.55462 1266 ft 255 kts 138°
2026-05-05 10:02 27.42675 -82.54147 1229 ft 262 kts 138°
2026-05-05 10:03 27.41263 -82.52821 1236 ft 261 kts 139°
2026-05-05 10:03 27.39904 -82.51558 1307 ft 252 kts 138°
2026-05-05 10:03 27.38399 -82.50969 1140 ft 226 kts 188°
2026-05-05 10:03 27.37394 -82.52097 874 ft 226 kts 258°
2026-05-05 10:04 27.37944 -82.53720 454 ft 231 kts 316°
2026-05-05 10:04 27.39047 -82.54950 74 ft 214 kts 316°
2026-05-05 10:04 27.40319 -82.56359 1006 ft 274 kts 317°
2026-05-05 10:04 27.41646 -82.57808 1356 ft 261 kts 316°
2026-05-05 10:05 27.43044 -82.58873 1316 ft 234 kts 357°
2026-05-05 10:05 27.44573 -82.58222 1343 ft 256 kts 49°
2026-05-05 10:05 27.45186 -82.56312 1309 ft 271 kts 101°
2026-05-05 10:05 27.44174 -82.54552 1320 ft 275 kts 129°
2026-05-05 10:06 27.42911 -82.52963 1308 ft 267 kts 131°
2026-05-05 10:06 27.41705 -82.51486 1277 ft 245 kts 131°
2026-05-05 10:06 27.40602 -82.50137 1226 ft 221 kts 130°
2026-05-05 10:06 27.39247 -82.49662 1158 ft 243 kts 198°
2026-05-05 10:07 27.38082 -82.51036 1100 ft 248 kts 244°
2026-05-05 10:07 27.37592 -82.53131 1932 ft 311 kts 254°
2026-05-05 10:07 27.37010 -82.55700 5638 ft 367 kts 243°
2026-05-05 10:07 27.34856 -82.57310 9917 ft 426 kts 177°
2026-05-05 10:08 27.31961 -82.55377 9486 ft 588 kts 119°
2026-05-05 10:08 27.30559 -82.50875 8835 ft 638 kts 87°
2026-05-05 10:08 27.32809 -82.47200 10118 ft 568 kts 345°
2026-05-05 10:08 27.35116 -82.50415 9468 ft 570 kts 311°
2026-05-05 10:09 27.37756 -82.53549 9316 ft 506 kts 315°
2026-05-05 10:09 27.40238 -82.55860 9006 ft 432 kts 338°
2026-05-05 10:09 27.42918 -82.55329 7743 ft 397 kts 43°
2026-05-05 10:09 27.43624 -82.52675 6820 ft 348 kts 110°
2026-05-05 10:10 27.42172 -82.50683 5915 ft 315 kts 140°
2026-05-05 10:10 27.40591 -82.49176 5794 ft 277 kts 150°
2026-05-05 10:10 27.38864 -82.48893 5140 ft 248 kts 195°
2026-05-05 10:10 27.37459 -82.49930 4060 ft 249 kts 227°
2026-05-05 10:11 27.36689 -82.51746 2132 ft 276 kts 270°
2026-05-05 10:11 27.37205 -82.53010 741 ft 264 kts 317°
2026-05-05 10:11 27.38780 -82.54644 46 ft 191 kts 316°
2026-05-05 10:11 27.39576 -82.55551 29 ft 173 kts 314°
2026-05-05 10:12 27.39795 -82.55800 52 ft 210 kts 316°
2026-05-05 10:13 27.40216 -82.56277 204 ft 262 kts 316°
2026-05-05 10:13 27.41716 -82.58021 1314 ft 313 kts 314°
2026-05-05 10:13 27.43182 -82.59534 1635 ft 259 kts 338°
2026-05-05 10:13 27.44801 -82.59422 1676 ft 226 kts 41°
2026-05-05 10:14 27.45238 -82.58059 1762 ft 177 kts 114°
2026-05-05 10:14 27.44280 -82.56772 1658 ft 222 kts 132°
2026-05-05 10:14 27.43270 -82.55598 1710 ft 196 kts 132°
2026-05-05 10:14 27.42227 -82.54386 1792 ft 221 kts 132°
2026-05-05 10:15 27.41184 -82.53172 1886 ft 232 kts 132°
2026-05-05 10:15 27.39965 -82.51742 2086 ft 272 kts 133°
2026-05-05 10:15 27.38567 -82.50220 2282 ft 276 kts 152°
2026-05-05 10:15 27.36895 -82.50336 1992 ft 233 kts 221°
2026-05-05 10:16 27.36770 -82.52116 1426 ft 256 kts 298°
2026-05-05 10:16 27.37903 -82.53613 573 ft 252 kts 314°
2026-05-05 10:16 27.39096 -82.55005 38 ft 237 kts 315°
2026-05-05 10:16 27.40602 -82.56723 634 ft 398 kts 315°
2026-05-05 10:17 27.43006 -82.59356 1035 ft 547 kts 343°
2026-05-05 10:17 27.43871 -82.56806 2168 ft 509 kts 138°
2026-05-05 10:17 27.41108 -82.53542 2067 ft 624 kts 129°
2026-05-05 10:17 27.38103 -82.49967 1550 ft 619 kts 175°
2026-05-05 10:18 27.37354 -82.53261 1456 ft 633 kts 320°
2026-05-05 10:18 27.40601 -82.56767 285 ft 659 kts 315°
2026-05-05 10:18 27.44011 -82.59710 1487 ft 609 kts 20°
2026-05-05 10:18 27.43322 -82.56272 2184 ft 608 kts 137°
2026-05-05 10:19 27.40161 -82.52830 1886 ft 646 kts 133°
2026-05-05 10:19 27.36678 -82.50068 2054 ft 635 kts 198°
2026-05-05 10:19 27.37568 -82.53386 533 ft 645 kts 327°
2026-05-05 10:19 27.40839 -82.56964 355 ft 657 kts 315°
2026-05-05 10:20 27.44451 -82.59360 1111 ft 621 kts 30°
2026-05-05 10:20 27.44009 -82.55494 2197 ft 615 kts 136°
2026-05-05 10:20 27.40853 -82.51989 2105 ft 647 kts 133°
2026-05-05 10:20 27.37434 -82.49065 1621 ft 637 kts 198°
2026-05-05 10:21 27.37586 -82.53217 1208 ft 659 kts 311°
2026-05-05 10:21 27.40768 -82.56985 665 ft 662 kts 315°
2026-05-05 10:21 27.44268 -82.60052 1042 ft 627 kts 17°
2026-05-05 10:21 27.43653 -82.56653 2500 ft 608 kts 137°
2026-05-05 10:22 27.40429 -82.53240 2499 ft 651 kts 135°
2026-05-05 10:22 27.37329 -82.49581 2492 ft 657 kts 133°
2026-05-05 10:22 27.33831 -82.46671 2175 ft 641 kts 191°
2026-05-05 10:22 27.33694 -82.50581 2282 ft 659 kts 312°
2026-05-05 10:23 27.36907 -82.54378 2284 ft 679 kts 314°
2026-05-05 10:23 27.40304 -82.54579 2079 ft 621 kts 82°
2026-05-05 10:23 27.38207 -82.50590 2517 ft 581 kts 134°
2026-05-05 10:23 27.35907 -82.50371 1691 ft 368 kts 291°
2026-05-05 10:24 27.37044 -82.52696 828 ft 262 kts 314°
2026-05-05 10:24 27.38025 -82.53780 309 ft 167 kts 317°
2026-05-05 10:24 27.38776 -82.54637 63 ft 149 kts 316°
2026-05-05 10:24 27.39415 -82.55357 63 ft 160 kts 317°
2026-05-05 10:25 27.40855 -82.56986 464 ft 429 kts 314°
2026-05-05 10:25 27.43541 -82.59459 529 ft 554 kts
2026-05-05 10:25 27.43541 -82.55990 1588 ft 601 kts 137°
2026-05-05 10:25 27.40560 -82.52871 2017 ft 513 kts 135°
2026-05-05 10:26 27.38238 -82.50424 2182 ft 412 kts 142°
2026-05-05 10:26 27.36100 -82.50981 1541 ft 331 kts 264°
2026-05-05 10:26 27.37169 -82.52818 729 ft 250 kts 316°
2026-05-05 10:26 27.38162 -82.53934 256 ft 179 kts 316°
2026-05-05 10:27 27.38936 -82.54823 38 ft 143 kts 317°
2026-05-05 10:27 27.39586 -82.55563 45 ft 182 kts 316°
2026-05-05 10:27 27.41080 -82.57239 544 ft 434 kts 316°
2026-05-05 10:27 27.44023 -82.59235 660 ft 563 kts 26°
2026-05-05 10:28 27.43608 -82.55508 1396 ft 620 kts 135°
2026-05-05 10:28 27.40462 -82.52049 1387 ft 583 kts 135°
2026-05-05 10:28 27.37885 -82.49511 1496 ft 438 kts 160°
2026-05-05 10:28 27.36098 -82.50912 1117 ft 342 kts 278°
2026-05-05 10:29 27.37038 -82.52616 656 ft 206 kts 315°
2026-05-05 10:29 27.37667 -82.53350 463 ft 181 kts 316°
2026-05-05 10:29 27.38478 -82.54288 165 ft 166 kts 316°
2026-05-05 10:29 27.39410 -82.55365 30 ft 120 kts 316°
2026-05-05 10:30 27.39764 -82.55763 29 ft 92 kts 315°
2026-05-05 10:30 27.40061 -82.56102 27 ft 33 kts 317°
2026-05-05 10:30 27.40223 -82.56286 28 ft 33 kts 312°
2026-05-05 10:30 27.40365 -82.56445 28 ft 20 kts 337°
2026-05-05 10:31 27.40450 -82.56387 29 ft 15 kts 49°
2026-05-05 10:31 27.40432 -82.56289 29 ft 16 kts 139°
2026-05-05 10:31 27.40344 -82.56193 29 ft 18 kts 135°
2026-05-05 10:31 27.40252 -82.56086 28 ft 20 kts 130°
2026-05-05 10:32 27.40154 -82.55976 28 ft 20 kts 137°
2026-05-05 10:32 27.40051 -82.55861 28 ft 22 kts 137°
2026-05-05 10:32 27.39930 -82.55757 28 ft 23 kts 151°
2026-05-05 10:32 27.39817 -82.55632 29 ft 24 kts 108°
2026-05-05 10:33 27.39819 -82.55448 29 ft 25 kts 86°
2026-05-05 10:33 27.39811 -82.55256 29 ft 24 kts 115°
2026-05-05 10:33 27.39706 -82.55108 28 ft 25 kts 130°
2026-05-05 10:33 27.39704 -82.54992 29 ft 17 kts 38°
2026-05-05 10:34 27.39697 -82.54876 29 ft 16 kts 106°
2026-05-05 10:34 27.39693 -82.54786 29 ft 2 kts 353°
2026-05-05 10:34 27.39696 -82.54790 29 ft 0 kts 311°